Regional Weather Roundup
Issued by NWS Upton, NY

Current Version | Previous Version | Text Only | Print | Product List | Glossary On
Versions: 1 2 3 4 5 6 7 8 9 10 11 12 13 14 15 16 17 18 19 20 21 22 23 24 25 26 27 28 29 30 31 32 33 34 35 36 37 38 39 40 41 42 43 44 45 46 47 48 49 50
000 ASUS41 KOKX 272308 RWROKX REGIONAL WEATHER ROUNDUP NATIONAL WEATHER SERVICE NEW YORK NY 700 PM EDT WED MAY 27 2015 NOTE: "FAIR" INDICATES FEW OR NO CLOUDS BELOW 12,000 FEET WITH NO SIGNIFICANT WEATHER AND/OR OBSTRUCTIONS TO VISIBILITY. NYZ071-072-176-178-NJZ106-104-280000- NEW YORK CITY METRO AREA CITY SKY/WX TMP DP RH WIND PRES REMARKS CENTRAL PARK PTSUNNY 76 62 62 VRB5 30.14R LAGUARDIA APRT PTSUNNY 72 61 68 S13 30.10R THUNDER KENNEDY INTL PTSUNNY 66 59 78 S28G35 30.11R NEWARK/LIBERTY TSTM 77 68 73 SE5 30.08R BRNX BOT. GARD N/A N/A N/A N/A S3 30.14R TETERBORO TSTM 73 68 84 SE10G17 30.09R $$ NYZ177-179-078>081-280000- LONG ISLAND NEW YORK CITY SKY/WX TMP DP RH WIND PRES REMARKS FARMINGDALE SUNNY 68 60 75 S25G33 30.13S ISLIP MOSUNNY 69 60 73 S17G32 30.14R SHIRLEY SUNNY 66 58 75 S16G26 30.16S WESTHAMPTON SUNNY 66 59 78 SW15G21 30.17S MONTAUK POINT N/A 64 58 80 S12G21 30.18S $$ NYZ052-065-067-280000- HUDSON VALLEY CITY SKY/WX TMP DP RH WIND PRES REMARKS WHITE PLAINS PTSUNNY 71 63 75 S8 30.14R THUNDER NEWBURGH CLOUDY 70 68 94 SW6 30.11F MONTGOMERY CLOUDY 70 68 93 SE6 30.09R POUGHKEEPSIE CLOUDY 70 66 87 SE5 30.10S THUNDER ALBANY CLOUDY 71 66 84 S9 30.06R $$ NJZ001-105-106-008-010-013-015-019>022-104-280000- NEW JERSEY CITY SKY/WX TMP DP RH WIND PRES REMARKS NEWARK/LIBERTY TSTM 77 68 73 SE5 30.08R TETERBORO TSTM 73 68 84 SE10G17 30.09R CALDWELL LGT RAIN 73 69 87 S3 30.10R MORRISTOWN CLOUDY 75 70 83 W6 30.09R SOMERVILLE LGT RAIN 73 69 87 VRB3 30.08R SUSSEX CLOUDY 71 66 84 SW7 30.11S ANDOVER N/A 71 68 90 SW3 30.10S TRENTON TSTM 73 67 81 S7 30.11R MILLVILLE SUNNY 76 67 73 VRB7 30.12F ATLANTIC CITY SUNNY 72 62 71 S18G29 30.13F WRIGHTSTOWN MOSUNNY 78 67 69 S9 30.08R TOMS RIVER MOSUNNY N/A N/A N/A S14G20 30.12S BELMAR MOSUNNY 77 63 61 S14 30.12S $$ PAZ047>061-062-071-280000- EASTERN PENNSYLVANIA CITY SKY/WX TMP DP RH WIND PRES REMARKS PHILADELPHIA CLOUDY 77 69 76 SW7 30.13R THUNDER ALLENTOWN CLOUDY 72 68 87 W5 30.10F SCRANTON PTSUNNY 74 68 81 SW5 30.09F $$ CTZ002-004>006-009-010-012-RIZ004-006-007-MAZ004-011-015-280000- SOUTHERN NEW ENGLAND IN CT CITY SKY/WX TMP DP RH WIND PRES REMARKS BRADLEY INTL PTSUNNY 75 64 68 S17G25 30.10R HARTFORD PTSUNNY 74 64 71 S14G23 30.12R DANBURY PTSUNNY 72 63 73 VRB5 30.15R WTRBRY/OXFORD PTSUNNY 72 63 73 S12 30.16R BRIDGEPORT SUNNY 70 61 73 SW10 30.13R MERIDEN SUNNY 72 63 73 S17G24 30.13R NEW HAVEN MOSUNNY 68 61 78 S8 30.14R CHESTER CLOUDY 70 63 78 SW13G18 30.17R GROTON CLOUDY 65 58 78 SW12 30.16S WILLIMANTIC CLOUDY 73 64 73 SW14 30.15R IN RI CITY SKY/WX TMP DP RH WIND PRES REMARKS PROVIDENCE PTSUNNY 71 60 68 SW15G26 30.15R BLOCK ISLAND SUNNY 63 55 77 SW14G23 30.19R WESTERLY CLOUDY 65 58 78 SW12G17 30.18S IN MA CITY SKY/WX TMP DP RH WIND PRES REMARKS BOSTON MOSUNNY 76 64 66 SW21G29 30.09R WORCESTER CLOUDY 74 64 71 SW16G32 30.13R WESTFIELD PTSUNNY 77 66 68 S15 30.09R PROVINCETOWN PTSUNNY 64 57 77 SW23G31 30.16R NANTUCKET CLEAR 62 58 86 S15 30.20S $$ ANZ330-335-338-340-345-350-353-355-280000- COASTAL MARINE OBSERVATIONS STATION/POSITION TIME SKY/WX TEMP WIND PRES VSBY WAVE AIR SEA DIR/SP/G HT/PER (UTC) (F) (DEG/KT/KT) (MB) (MI) (FT/S) NY HARB ENTRANCE 2150 62 54 190/ 23/ 29 1018.7 5/ 6 4S FIRE IS NOT AVBL 20S FIRE ISLAND 2150 62 57 190/ 17/ 21 1020.6 4/ 6 GREAT SOUTH BAY NOT AVBL 23SW MTP 2150 60 54 210/ 14/ 16 1021.5 4/ 6 HUDSON CANYON NOT AVBL KINGS POINT NOT AVBL CENTRAL LI SOUND NOT AVBL EASTERN LI SOUND NOT AVBL ROBBINS REEF NOT AVBL $$ >>>>>>>>>>>>>>>>>>>>>>>>>>>> KEY <<<<<<<<<<<<<<<<<<<<<<<<<<< > < > SKY/WX - SKY CONDITION/PRESENT WEATHER < > TMP - TEMPERATURE IN FAHRENHEIT < > DP - DEWPOINT IN FAHRENHEIT < > RH - RELATIVE HUMIDITY IN PERCENT < > WIND - DIRECTION AND SPEED IN MPH < > PRES - MEAN SEA LEVEL PRESSURE IN INCHES OF HG < > WCI - WIND CHILL INDEX < > VSB - VISIBILITY IN MILES < > HX - HEAT INDEX < > TC - TEMPERATURE IN CELSIUS < > VRB - VARIABLE WIND DIRECTION < > < >>>>>>>>>>>>>>>>>>>>>>>>>>>> KEY <<<<<<<<<<<<<<<<<<<<<<<<<<<

USA.gov is the U.S. government's official web portal to all federal, state and local government web resources and services.